| time (UTC) | temp F | wind direction | speed knots | gust knots | rain 1hr in | rain 24hr in | rain mn in | humidity % | barometer mb |
| 20260903103102 | 81 | 72 | 0.0 | 3.5 | 0.00 | 0.00 | 0.00 | 87 | 1013.5 |
| 20260903102545 | 81 | 0 | 0.9 | 6.1 | 0.00 | 0.00 | 0.00 | 87 | 1013.4 |
| 20260903102047 | 81 | 0 | 0.9 | 6.1 | 0.00 | 0.00 | 0.00 | 87 | 1013.5 |
| 20260903101603 | 81 | 70 | 0.0 | 5.2 | 0.00 | 0.00 | 0.00 | 87 | 1013.5 |
| 20260903101047 | 81 | 58 | 0.9 | 5.2 | 0.00 | 0.00 | 0.00 | 87 | 1013.5 |
| 20260903100547 | 81 | 64 | 0.0 | 5.2 | 0.00 | 0.00 | 0.00 | 87 | 1013.5 |
| 20260903100059 | 81 | 0 | 0.0 | 5.2 | 0.00 | 0.00 | 0.00 | 87 | 1013.5 |
| 20260903095546 | 81 | 64 | 0.0 | 2.6 | 0.00 | 0.00 | 0.00 | 87 | 1013.6 |
| 20260903095046 | 81 | 0 | 0.0 | 3.5 | 0.00 | 0.00 | 0.00 | 87 | 1013.6 |
| 20260903094642 | 81 | 64 | 0.0 | 3.5 | 0.00 | 0.00 | 0.00 | 87 | 1013.7 |
| 20260903094046 | 81 | 69 | 0.0 | 3.5 | 0.00 | 0.00 | 0.00 | 86 | 1013.7 |
| 20260903093546 | 81 | 62 | 0.0 | 2.6 | 0.00 | 0.00 | 0.00 | 86 | 1013.7 |
| 20260903093104 | 81 | 0 | 0.0 | 5.2 | 0.00 | 0.00 | 0.00 | 86 | 1013.7 |
| 20260903092550 | 81 | 0 | 0.9 | 5.2 | 0.00 | 0.00 | 0.00 | 86 | 1013.7 |
| 20260903092049 | 81 | 58 | 0.0 | 5.2 | 0.00 | 0.00 | 0.00 | 86 | 1013.7 |
| 20260903091605 | 81 | 53 | 0.9 | 5.2 | 0.00 | 0.00 | 0.00 | 86 | 1013.8 |
| 20260903091046 | 81 | 60 | 0.0 | 5.2 | 0.00 | 0.00 | 0.00 | 86 | 1013.8 |
| 20260903090547 | 81 | 62 | 0.0 | 5.2 | 0.00 | 0.00 | 0.00 | 86 | 1013.8 |
| 20260903090059 | 81 | 66 | 0.0 | 3.5 | 0.00 | 0.00 | 0.00 | 86 | 1013.9 |
| 20260903085546 | 81 | 68 | 0.9 | 3.5 | 0.00 | 0.00 | 0.00 | 85 | 1013.9 |
| 20260903085046 | 81 | 0 | 0.0 | 2.6 | 0.00 | 0.00 | 0.00 | 85 | 1013.8 |
| 20260903084558 | 81 | 0 | 0.0 | 3.5 | 0.00 | 0.00 | 0.00 | 85 | 1013.8 |
| 20260903084046 | 81 | 0 | 0.9 | 5.2 | 0.00 | 0.00 | 0.00 | 85 | 1013.7 |
| 20260903083546 | 82 | 68 | 0.9 | 5.2 | 0.00 | 0.00 | 0.00 | 85 | 1013.8 |
| 20260903083108 | 82 | 0 | 0.0 | 3.5 | 0.00 | 0.00 | 0.00 | 85 | 1013.9 |
| 20260903082546 | 82 | 64 | 0.9 | 5.2 | 0.00 | 0.00 | 0.00 | 85 | 1013.9 |
| 20260903082047 | 82 | 80 | 0.9 | 5.2 | 0.00 | 0.00 | 0.00 | 84 | 1013.8 |
| 20260903081603 | 82 | 65 | 0.0 | 7.0 | 0.00 | 0.00 | 0.00 | 84 | 1013.8 |
| 20260903081047 | 82 | 0 | 0.9 | 7.0 | 0.00 | 0.00 | 0.00 | 84 | 1013.8 |
| 20260903080547 | 82 | 0 | 0.9 | 6.1 | 0.00 | 0.00 | 0.00 | 84 | 1013.7 |
| 20260903080104 | 82 | 0 | 0.9 | 6.1 | 0.00 | 0.00 | 0.00 | 84 | 1013.8 |
| 20260903075546 | 82 | 0 | 1.7 | 7.0 | 0.00 | 0.00 | 0.00 | 83 | 1013.8 |
| 20260903075047 | 82 | 66 | 0.9 | 7.0 | 0.00 | 0.00 | 0.00 | 83 | 1013.8 |
| 20260903074604 | 82 | 56 | 0.9 | 7.0 | 0.00 | 0.00 | 0.00 | 83 | 1013.9 |
| 20260903074047 | 82 | 64 | 1.7 | 6.1 | 0.00 | 0.00 | 0.00 | 82 | 1014.0 |
| 20260903073546 | 82 | 0 | 0.9 | 5.2 | 0.00 | 0.00 | 0.00 | 82 | 1014.0 |
| 20260903073058 | 82 | 60 | 0.9 | 7.0 | 0.00 | 0.00 | 0.00 | 82 | 1014.0 |
| 20260903072546 | 82 | 71 | 0.9 | 7.8 | 0.00 | 0.00 | 0.00 | 81 | 1014.0 |
| 20260903072046 | 83 | 53 | 1.7 | 7.8 | 0.00 | 0.00 | 0.00 | 81 | 1014.0 |
| 20260903071601 | 83 | 59 | 0.9 | 5.2 | 0.00 | 0.00 | 0.00 | 80 | 1014.0 |
| 20260903071046 | 83 | 78 | 0.0 | 6.1 | 0.00 | 0.00 | 0.00 | 80 | 1014.0 |
| 20260903070545 | 83 | 63 | 0.0 | 6.1 | 0.00 | 0.00 | 0.00 | 80 | 1014.1 |
| 20260903070100 | 83 | 0 | 0.9 | 5.2 | 0.00 | 0.00 | 0.00 | 79 | 1014.2 |
| 20260903065547 | 83 | 66 | 0.9 | 5.2 | 0.00 | 0.00 | 0.00 | 79 | 1014.1 |
| 20260903065046 | 83 | 70 | 0.9 | 5.2 | 0.00 | 0.00 | 0.00 | 78 | 1014.1 |
| 20260903064604 | 83 | 0 | 0.9 | 6.1 | 0.00 | 0.00 | 0.00 | 78 | 1014.1 |
| 20260903064047 | 83 | 74 | 0.0 | 6.1 | 0.00 | 0.00 | 0.00 | 77 | 1014.1 |
| 20260903063545 | 84 | 0 | 0.0 | 6.1 | 0.00 | 0.00 | 0.00 | 77 | 1014.1 |
| 20260903063054 | 84 | 64 | 0.0 | 6.1 | 0.00 | 0.00 | 0.00 | 77 | 1014.1 |
| 20260903062546 | 84 | 0 | 0.9 | 6.1 | 0.00 | 0.00 | 0.00 | 76 | 1014.2 |
| 20260903062046 | 84 | 60 | 0.0 | 6.1 | 0.00 | 0.00 | 0.00 | 76 | 1014.2 |
| 20260903061558 | 84 | 0 | 0.0 | 7.0 | 0.00 | 0.00 | 0.00 | 75 | 1014.2 |
| 20260903061046 | 84 | 66 | 0.9 | 7.0 | 0.00 | 0.00 | 0.00 | 74 | 1014.1 |
| 20260903060546 | 84 | 66 | 0.9 | 7.8 | 0.00 | 0.00 | 0.00 | 73 | 1014.2 |
| 20260903060058 | 84 | 60 | 0.9 | 7.8 | 0.00 | 0.00 | 0.00 | 73 | 1014.0 |
| 20260903055547 | 84 | 74 | 0.9 | 5.2 | 0.00 | 0.00 | 0.00 | 72 | 1014.1 |
| 20260903055047 | 85 | 0 | 0.9 | 7.0 | 0.00 | 0.00 | 0.00 | 72 | 1014.1 |
| 20260903054604 | 85 | 60 | 0.9 | 7.0 | 0.00 | 0.00 | 0.00 | 71 | 1014.1 |
| 20260903054048 | 85 | 56 | 1.7 | 7.0 | 0.00 | 0.00 | 0.00 | 70 | 1014.1 |
| 20260903053546 | 85 | 68 | 0.0 | 7.0 | 0.00 | 0.00 | 0.00 | 70 | 1014.0 |
| 20260903053104 | 85 | 0 | 0.9 | 11.3 | 0.00 | 0.00 | 0.00 | 69 | 1014.0 |
| 20260903052546 | 85 | 62 | 2.6 | 11.3 | 0.00 | 0.00 | 0.00 | 68 | 1014.0 |
| 20260903052047 | 86 | 157 | 0.9 | 6.1 | 0.00 | 0.00 | 0.00 | 67 | 1014.0 |
| 20260903051559 | 86 | 74 | 0.9 | 5.2 | 0.00 | 0.00 | 0.00 | 66 | 1014.0 |
| 20260903051047 | 86 | 0 | 0.9 | 7.8 | 0.00 | 0.00 | 0.00 | 66 | 1014.0 |
| 20260903050546 | 86 | 62 | 0.0 | 7.8 | 0.00 | 0.00 | 0.00 | 66 | 1013.9 |
| 20260903050101 | 86 | 58 | 0.0 | 6.1 | 0.00 | 0.00 | 0.00 | 66 | 1013.9 |
| 20260903045547 | 86 | 0 | 0.0 | 6.1 | 0.00 | 0.00 | 0.00 | 65 | 1014.0 |
| 20260903045049 | 86 | 53 | 0.0 | 5.2 | 0.00 | 0.00 | 0.00 | 65 | 1013.9 |
| 20260903044600 | 86 | 0 | 0.0 | 1.7 | 0.00 | 0.00 | 0.00 | 66 | 1014.1 |
| 20260903044046 | 86 | 74 | 0.0 | 3.5 | 0.00 | 0.00 | 0.00 | 67 | 1014.0 |
| 20260903043546 | 86 | 0 | 0.0 | 3.5 | 0.00 | 0.00 | 0.00 | 67 | 1013.9 |
| 20260903043100 | 86 | 0 | 0.0 | 3.5 | 0.00 | 0.00 | 0.00 | 68 | 1013.9 |
| 20260903042551 | 86 | 78 | 0.0 | 5.2 | 0.00 | 0.00 | 0.00 | 68 | 1013.8 |
| 20260903042046 | 86 | 0 | 0.0 | 5.2 | 0.00 | 0.00 | 0.00 | 68 | 1013.7 |
| 20260903041612 | 86 | 0 | 0.0 | 2.6 | 0.00 | 0.00 | 0.00 | 69 | 1013.7 |
| 20260903041045 | 87 | 0 | 0.0 | 2.6 | 0.00 | 0.00 | 0.00 | 68 | 1013.6 |
| 20260903040545 | 87 | 72 | 0.0 | 2.6 | 0.00 | 0.00 | 0.00 | 68 | 1013.7 |
| 20260903040120 | 87 | 0 | 0.0 | 2.6 | 0.00 | 0.00 | 0.00 | 67 | 1013.8 |
| 20260903035546 | 87 | 75 | 0.9 | 2.6 | 0.00 | 0.00 | 0.00 | 66 | 1013.8 |
| 20260903035046 | 88 | 0 | 0.0 | 2.6 | 0.00 | 0.00 | 0.00 | 66 | 1013.9 |
| 20260903034553 | 88 | 0 | 0.0 | 2.6 | 0.00 | 0.00 | 0.00 | 65 | 1013.9 |
| 20260903034046 | 88 | 0 | 0.0 | 2.6 | 0.00 | 0.00 | 0.00 | 64 | 1013.8 |
| 20260903033546 | 88 | 0 | 0.0 | 5.2 | 0.00 | 0.00 | 0.00 | 63 | 1013.8 |
| 20260903033058 | 88 | 0 | 0.9 | 5.2 | 0.00 | 0.00 | 0.00 | 62 | 1013.7 |
| 20260903032546 | 89 | 66 | 0.0 | 2.6 | 0.00 | 0.00 | 0.00 | 62 | 1013.6 |
| 20260903032049 | 89 | 157 | 0.0 | 3.5 | 0.00 | 0.00 | 0.00 | 62 | 1013.6 |
| 20260903031600 | 89 | 65 | 0.9 | 3.5 | 0.00 | 0.00 | 0.00 | 61 | 1013.6 |
| 20260903031050 | 89 | 75 | 0.0 | 1.7 | 0.00 | 0.00 | 0.00 | 61 | 1013.4 |
| 20260903030546 | 89 | 75 | 0.0 | 1.7 | 0.00 | 0.00 | 0.00 | 61 | 1013.3 |
| 20260903030057 | 89 | 0 | 0.0 | 1.7 | 0.00 | 0.00 | 0.00 | 61 | 1013.0 |
| 20260903025547 | 90 | 0 | 0.0 | 2.6 | 0.00 | 0.00 | 0.00 | 60 | 1013.0 |
| 20260903025050 | 90 | 0 | 0.0 | 2.6 | 0.00 | 0.00 | 0.00 | 60 | 1012.9 |
| 20260903024557 | 90 | 0 | 0.0 | 2.6 | 0.00 | 0.00 | 0.00 | 61 | 1012.9 |
| 20260903024045 | 90 | 0 | 0.0 | 2.6 | 0.00 | 0.00 | 0.00 | 60 | 1012.8 |
| 20260903023545 | 90 | 0 | 0.0 | 2.6 | 0.00 | 0.00 | 0.00 | 60 | 1012.7 |
| 20260903023102 | 90 | 0 | 0.0 | 2.6 | 0.00 | 0.00 | 0.00 | 60 | 1012.6 |
| 20260903022548 | 89 | 75 | 0.0 | 1.7 | 0.00 | 0.00 | 0.00 | 60 | 1012.5 |
| 20260903022045 | 89 | 0 | 0.0 | 1.7 | 0.00 | 0.00 | 0.00 | 60 | 1012.3 |
| 20260903021559 | 89 | 0 | 0.0 | 0.9 | 0.00 | 0.00 | 0.00 | 60 | 1012.3 |
| 20260903021046 | 89 | 0 | 0.0 | 0.0 | 0.00 | 0.00 | 0.00 | 62 | 1011.9 |
| 20260903020545 | 89 | 0 | 0.0 | 0.0 | 0.00 | 0.00 | 0.00 | 61 | 1011.8 |
| 20260903020058 | 90 | 0 | 0.0 | 0.0 | 0.00 | 0.00 | 0.00 | 61 | 1011.7 |
| 20260903015546 | 90 | 0 | 0.0 | 0.0 | 0.00 | 0.00 | 0.00 | 59 | 1011.6 |
| 20260903015045 | 90 | 0 | 0.0 | 0.0 | 0.00 | 0.00 | 0.00 | 59 | 1011.6 |
| 20260903014554 | 91 | 0 | 0.0 | 0.0 | 0.00 | 0.00 | 0.00 | 58 | 1011.6 |
| 20260903014049 | 91 | 0 | 0.0 | 0.0 | 0.00 | 0.00 | 0.00 | 58 | 1011.6 |
| 20260903013546 | 92 | 0 | 0.0 | 0.0 | 0.00 | 0.00 | 0.00 | 57 | 1011.5 |
| 20260903013059 | 92 | 0 | 0.0 | 0.0 | 0.00 | 0.00 | 0.00 | 56 | 1011.5 |
| 20260903012545 | 92 | 0 | 0.0 | 0.0 | 0.00 | 0.00 | 0.00 | 55 | 1011.5 |
| 20260903012045 | 93 | 0 | 0.0 | 1.7 | 0.00 | 0.00 | 0.00 | 55 | 1011.6 |
| 20260903011558 | 93 | 0 | 0.0 | 1.7 | 0.00 | 0.00 | 0.00 | 54 | 1011.5 |
| 20260903011046 | 93 | 75 | 0.0 | 0.9 | 0.00 | 0.00 | 0.00 | 54 | 1011.6 |
| 20260903010546 | 93 | 0 | 0.0 | 1.7 | 0.00 | 0.00 | 0.00 | 53 | 1011.5 |
| 20260903010056 | 93 | 0 | 0.0 | 1.7 | 0.00 | 0.00 | 0.00 | 53 | 1011.5 |
| 20260903005545 | 94 | 0 | 0.0 | 1.7 | 0.00 | 0.00 | 0.00 | 53 | 1011.6 |
| 20260903005046 | 94 | 0 | 0.0 | 1.7 | 0.00 | 0.00 | 0.00 | 52 | 1011.4 |
| 20260903004555 | 94 | 0 | 0.0 | 1.7 | 0.00 | 0.00 | 0.00 | 52 | 1011.5 |
| 20260903004046 | 94 | 76 | 0.0 | 1.7 | 0.00 | 0.00 | 0.00 | 51 | 1011.5 |
| 20260903003545 | 94 | 0 | 0.0 | 0.9 | 0.00 | 0.00 | 0.00 | 51 | 1011.5 |
| 20260903003101 | 95 | 0 | 0.0 | 0.9 | 0.00 | 0.00 | 0.00 | 50 | 1011.5 |
| 20260903002545 | 95 | 0 | 0.0 | 0.9 | 0.00 | 0.00 | 0.00 | 52 | 1011.5 |
| 20260903002046 | 96 | 0 | 0.0 | 0.9 | 0.00 | 0.00 | 0.00 | 51 | 1011.3 |
| 20260903001604 | 96 | 0 | 0.0 | 0.9 | 0.00 | 0.00 | 0.00 | 50 | 1011.4 |
| 20260903001045 | 96 | 0 | 0.0 | 0.0 | 0.00 | 0.00 | 0.00 | 51 | 1011.4 |
| 20260903000546 | 97 | 0 | 0.0 | 0.0 | 0.00 | 0.00 | 0.00 | 50 | 1011.4 |
| 20260903000059 | 97 | 0 | 0.0 | 0.0 | 0.00 | 0.00 | 0.00 | 50 | 1011.3 |
| 20260902235546 | 97 | 0 | 0.0 | 1.7 | 0.00 | 0.00 | 0.00 | 48 | 1011.3 |
| 20260902235046 | 97 | 0 | 0.0 | 1.7 | 0.00 | 0.00 | 0.00 | 48 | 1011.3 |
| 20260902234555 | 97 | 0 | 0.0 | 0.0 | 0.00 | 0.00 | 0.00 | 49 | 1011.3 |
| 20260902234046 | 97 | 0 | 0.0 | 1.7 | 0.00 | 0.00 | 0.00 | 47 | 1011.4 |
| 20260902233546 | 98 | 0 | 0.0 | 1.7 | 0.00 | 0.00 | 0.00 | 47 | 1011.4 |
| 20260902233058 | 98 | 0 | 0.0 | 1.7 | 0.00 | 0.00 | 0.00 | 46 | 1011.4 |
| 20260902232545 | 98 | 0 | 0.0 | 0.9 | 0.00 | 0.00 | 0.00 | 45 | 1011.4 |
| 20260902232045 | 98 | 0 | 0.0 | 0.9 | 0.00 | 0.00 | 0.00 | 46 | 1011.4 |
| 20260902231551 | 98 | 0 | 0.0 | 0.0 | 0.00 | 0.00 | 0.00 | 47 | 1011.4 |
| 20260902231046 | 98 | 0 | 0.0 | 1.7 | 0.00 | 0.00 | 0.00 | 46 | 1011.4 |
| 20260902230546 | 98 | 0 | 0.0 | 2.6 | 0.00 | 0.00 | 0.00 | 46 | 1011.4 |
| 20260902230117 | 98 | 0 | 0.0 | 2.6 | 0.00 | 0.00 | 0.00 | 46 | 1011.5 |
| 20260902225546 | 98 | 0 | 0.0 | 2.6 | 0.00 | 0.00 | 0.00 | 46 | 1011.2 |
| 20260902225045 | 98 | 0 | 0.0 | 2.6 | 0.00 | 0.00 | 0.00 | 45 | 1011.4 |
| 20260902224600 | 98 | 68 | 0.0 | 2.6 | 0.00 | 0.00 | 0.00 | 46 | 1011.3 |
| 20260902224045 | 98 | 0 | 0.0 | 1.7 | 0.00 | 0.00 | 0.00 | 47 | 1011.4 |
| 20260902223546 | 98 | 0 | 0.0 | 2.6 | 0.00 | 0.00 | 0.00 | 47 | 1011.4 |
| 20260902223054 | 98 | 0 | 0.0 | 2.6 | 0.00 | 0.00 | 0.00 | 49 | 1011.5 |
| 20260902222546 | 98 | 0 | 0.0 | 2.6 | 0.00 | 0.00 | 0.00 | 47 | 1011.4 |
| 20260902222048 | 98 | 0 | 0.0 | 3.5 | 0.00 | 0.00 | 0.00 | 48 | 1011.5 |
| 20260902221601 | 98 | 68 | 0.9 | 3.5 | 0.00 | 0.00 | 0.00 | 48 | 1011.4 |
| 20260902221045 | 98 | 0 | 0.0 | 3.5 | 0.00 | 0.00 | 0.00 | 48 | 1011.5 |
| 20260902220545 | 98 | 0 | 0.0 | 5.2 | 0.00 | 0.00 | 0.00 | 47 | 1011.6 |
| 20260902220100 | 98 | 0 | 0.0 | 7.0 | 0.00 | 0.00 | 0.00 | 47 | 1011.6 |
| 20260902215545 | 98 | 60 | 0.9 | 7.0 | 0.00 | 0.00 | 0.00 | 47 | 1011.5 |
| 20260902215045 | 98 | 72 | 0.0 | 3.5 | 0.00 | 0.00 | 0.00 | 47 | 1011.6 |
| 20260902214612 | 98 | 66 | 0.9 | 3.5 | 0.00 | 0.00 | 0.00 | 47 | 1011.7 |
| 20260902214045 | 98 | 66 | 0.9 | 3.5 | 0.00 | 0.00 | 0.00 | 46 | 1011.7 |
| 20260902213545 | 99 | 61 | 0.0 | 2.6 | 0.00 | 0.00 | 0.00 | 50 | 1011.7 |
| 20260902213100 | 99 | 0 | 0.0 | 2.6 | 0.00 | 0.00 | 0.00 | 47 | 1011.7 |
| 20260902212546 | 99 | 61 | 0.0 | 3.5 | 0.00 | 0.00 | 0.00 | 47 | 1011.8 |
| 20260902212046 | 99 | 0 | 0.0 | 3.5 | 0.00 | 0.00 | 0.00 | 47 | 1011.8 |
| 20260902211558 | 99 | 56 | 0.9 | 3.5 | 0.00 | 0.00 | 0.00 | 46 | 1012.0 |
| 20260902211045 | 98 | 0 | 0.0 | 2.6 | 0.00 | 0.00 | 0.00 | 47 | 1011.9 |
| 20260902210546 | 98 | 57 | 0.0 | 2.6 | 0.00 | 0.00 | 0.00 | 46 | 1011.9 |
| 20260902210135 | 97 | 57 | 0.0 | 3.5 | 0.00 | 0.00 | 0.00 | 48 | 1011.9 |
| 20260902205545 | 96 | 0 | 0.0 | 3.5 | 0.00 | 0.00 | 0.00 | 48 | 1012.0 |
| 20260902205045 | 95 | 0 | 0.0 | 2.6 | 0.00 | 0.00 | 0.00 | 49 | 1012.2 |
| 20260902204556 | 94 | 58 | 0.9 | 2.6 | 0.00 | 0.00 | 0.00 | 53 | 1012.2 |
| 20260902204046 | 93 | 0 | 0.0 | 2.6 | 0.00 | 0.00 | 0.00 | 58 | 1012.3 |
| 20260902203545 | 92 | 0 | 0.0 | 2.6 | 0.00 | 0.00 | 0.00 | 59 | 1012.4 |
| 20260902203053 | 91 | 0 | 0.0 | 1.7 | 0.00 | 0.00 | 0.00 | 69 | 1012.5 |
| 20260902202546 | 90 | 57 | 0.0 | 0.9 | 0.00 | 0.00 | 0.00 | 69 | 1012.7 |
| 20260902202049 | 90 | 0 | 0.0 | 1.7 | 0.00 | 0.00 | 0.00 | 71 | 1012.7 |
| 20260902201619 | 90 | 0 | 0.0 | 1.7 | 0.00 | 0.00 | 0.00 | 72 | 1012.8 |
| 20260902201045 | 92 | 57 | 0.0 | 1.7 | 0.00 | 0.00 | 0.00 | 67 | 1012.9 |
| 20260902200546 | 95 | 0 | 0.0 | 1.7 | 0.00 | 0.00 | 0.00 | 64 | 1013.0 |
| 20260902200106 | 97 | 57 | 0.0 | 1.7 | 0.00 | 0.00 | 0.00 | 56 | 1012.9 |
| 20260902195546 | 97 | 0 | 0.0 | 3.5 | 0.00 | 0.00 | 0.00 | 47 | 1013.0 |
| 20260902195045 | 97 | 57 | 0.9 | 3.5 | 0.00 | 0.00 | 0.00 | 47 | 1013.1 |
| 20260902194600 | 98 | 0 | 0.0 | 2.6 | 0.00 | 0.00 | 0.00 | 47 | 1013.1 |
| 20260902194050 | 98 | 53 | 0.0 | 1.7 | 0.00 | 0.00 | 0.00 | 47 | 1013.1 |
| 20260902193545 | 98 | 0 | 0.0 | 2.6 | 0.00 | 0.00 | 0.00 | 51 | 1013.1 |
| 20260902193101 | 97 | 0 | 0.0 | 2.6 | 0.00 | 0.00 | 0.00 | 48 | 1013.2 |
| 20260902192545 | 97 | 0 | 0.0 | 0.0 | 0.00 | 0.00 | 0.00 | 47 | 1013.4 |
| 20260902192046 | 97 | 0 | 0.0 | 0.0 | 0.00 | 0.00 | 0.00 | 48 | 1013.4 |
| 20260902191602 | 97 | 0 | 0.0 | 0.0 | 0.00 | 0.00 | 0.00 | 48 | 1013.5 |
| 20260902191045 | 98 | 0 | 0.0 | 0.0 | 0.00 | 0.00 | 0.00 | 49 | 1013.5 |
| 20260902190548 | 98 | 0 | 0.0 | 0.0 | 0.00 | 0.00 | 0.00 | 47 | 1013.7 |
| 20260902190124 | 98 | 0 | 0.0 | 0.9 | 0.00 | 0.00 | 0.00 | 47 | 1013.6 |
| 20260902185546 | 98 | 0 | 0.0 | 2.6 | 0.00 | 0.00 | 0.00 | 47 | 1013.8 |
| 20260902185046 | 99 | 0 | 0.0 | 2.6 | 0.00 | 0.00 | 0.00 | 45 | 1013.8 |
| 20260902184607 | 99 | 0 | 0.9 | 5.2 | 0.00 | 0.00 | 0.00 | 44 | 1013.9 |
| 20260902184046 | 99 | 0 | 0.9 | 5.2 | 0.00 | 0.00 | 0.00 | 46 | 1013.9 |
| 20260902183546 | 98 | 57 | 0.9 | 2.6 | 0.00 | 0.00 | 0.00 | 47 | 1014.1 |
| 20260902183054 | 98 | 57 | 0.0 | 2.6 | 0.00 | 0.00 | 0.00 | 49 | 1014.1 |
| 20260902182545 | 97 | 0 | 0.0 | 1.7 | 0.00 | 0.00 | 0.00 | 51 | 1014.2 |
| 20260902182046 | 97 | 0 | 0.0 | 1.7 | 0.00 | 0.00 | 0.00 | 51 | 1014.3 |
| 20260902181623 | 97 | 0 | 0.0 | 1.7 | 0.00 | 0.00 | 0.00 | 48 | 1014.5 |
| 20260902181045 | 97 | 55 | 0.0 | 1.7 | 0.00 | 0.00 | 0.00 | 49 | 1014.4 |
| 20260902180545 | 97 | 55 | 0.0 | 1.7 | 0.00 | 0.00 | 0.00 | 50 | 1014.5 |
| 20260902180100 | 97 | 55 | 0.0 | 2.6 | 0.00 | 0.00 | 0.00 | 49 | 1014.6 |
| 20260902175545 | 97 | 0 | 0.0 | 2.6 | 0.00 | 0.00 | 0.00 | 50 | 1014.7 |
| 20260902175045 | 97 | 55 | 0.0 | 3.5 | 0.00 | 0.00 | 0.00 | 48 | 1014.8 |
| 20260902174554 | 97 | 55 | 0.0 | 3.5 | 0.00 | 0.00 | 0.00 | 51 | 1015.0 |
| 20260902174049 | 97 | 0 | 0.9 | 5.2 | 0.00 | 0.00 | 0.00 | 50 | 1015.1 |
| 20260902173546 | 97 | 0 | 0.9 | 5.2 | 0.00 | 0.00 | 0.00 | 51 | 1015.3 |
| 20260902173102 | 97 | 70 | 0.0 | 3.5 | 0.00 | 0.00 | 0.00 | 52 | 1015.3 |
| 20260902172545 | 96 | 0 | 0.0 | 5.2 | 0.00 | 0.00 | 0.00 | 50 | 1015.4 |
| 20260902172045 | 96 | 0 | 0.9 | 5.2 | 0.00 | 0.00 | 0.00 | 50 | 1015.5 |
| 20260902171618 | 96 | 0 | 0.9 | 5.2 | 0.00 | 0.00 | 0.00 | 51 | 1015.6 |
| 20260902171045 | 95 | 0 | 0.0 | 2.6 | 0.00 | 0.00 | 0.00 | 53 | 1015.6 |
| 20260902170545 | 95 | 0 | 0.0 | 3.5 | 0.00 | 0.00 | 0.00 | 54 | 1015.6 |
| 20260902170103 | 95 | 0 | 0.9 | 3.5 | 0.00 | 0.00 | 0.00 | 55 | 1015.7 |
| 20260902165546 | 94 | 56 | 0.9 | 5.2 | 0.00 | 0.00 | 0.00 | 55 | 1015.8 |
| 20260902165049 | 94 | 55 | 0.9 | 5.2 | 0.00 | 0.00 | 0.00 | 55 | 1015.8 |
| 20260902164604 | 93 | 60 | 0.9 | 5.2 | 0.00 | 0.00 | 0.00 | 56 | 1015.9 |
| 20260902164045 | 93 | 70 | 0.0 | 3.5 | 0.00 | 0.00 | 0.00 | 57 | 1015.9 |
| 20260902163547 | 92 | 0 | 0.0 | 1.7 | 0.00 | 0.00 | 0.00 | 58 | 1016.0 |
| 20260902163057 | 92 | 58 | 0.0 | 2.6 | 0.00 | 0.00 | 0.00 | 60 | 1016.0 |
| 20260902162545 | 91 | 0 | 0.9 | 2.6 | 0.00 | 0.00 | 0.00 | 60 | 1016.1 |
| 20260902162045 | 91 | 58 | 0.0 | 2.6 | 0.00 | 0.00 | 0.00 | 60 | 1016.1 |
| 20260902161605 | 91 | 0 | 0.0 | 3.5 | 0.00 | 0.00 | 0.00 | 61 | 1016.1 |
| 20260902161045 | 90 | 55 | 0.9 | 3.5 | 0.00 | 0.00 | 0.00 | 62 | 1016.1 |
| 20260902160546 | 89 | 0 | 0.0 | 3.5 | 0.00 | 0.00 | 0.00 | 63 | 1016.0 |
| 20260902160058 | 89 | 57 | 0.9 | 3.5 | 0.00 | 0.00 | 0.00 | 63 | 1016.1 |
| 20260902155546 | 89 | 64 | 0.0 | 1.7 | 0.00 | 0.00 | 0.00 | 66 | 1016.1 |
| 20260902155045 | 88 | 0 | 0.0 | 1.7 | 0.00 | 0.00 | 0.00 | 67 | 1016.2 |
| 20260902154556 | 88 | 0 | 0.0 | 1.7 | 0.00 | 0.00 | 0.00 | 69 | 1016.1 |
| 20260902154045 | 87 | 0 | 0.0 | 1.7 | 0.00 | 0.00 | 0.00 | 69 | 1016.2 |
| 20260902153545 | 87 | 0 | 0.0 | 1.7 | 0.00 | 0.00 | 0.00 | 69 | 1016.2 |
| 20260902153055 | 87 | 0 | 0.0 | 1.7 | 0.00 | 0.00 | 0.00 | 70 | 1016.2 |
| 20260902152544 | 86 | 0 | 0.0 | 1.7 | 0.00 | 0.00 | 0.00 | 70 | 1016.3 |
| 20260902152048 | 86 | 0 | 0.0 | 1.7 | 0.00 | 0.00 | 0.00 | 71 | 1016.3 |
| 20260902151553 | 85 | 0 | 0.0 | 0.9 | 0.00 | 0.00 | 0.00 | 72 | 1016.3 |
| 20260902151045 | 85 | 0 | 0.0 | 1.7 | 0.00 | 0.00 | 0.00 | 73 | 1016.2 |
| 20260902150544 | 84 | 0 | 0.0 | 1.7 | 0.00 | 0.00 | 0.00 | 75 | 1016.3 |
| 20260902145546 | 83 | 0 | 0.0 | 1.7 | 0.00 | 0.00 | 0.00 | 76 | 1016.1 |
| 20260902145045 | 83 | 0 | 0.0 | 0.0 | 0.00 | 0.00 | 0.00 | 77 | 1016.2 |
| 20260902144602 | 83 | 0 | 0.0 | 0.0 | 0.00 | 0.00 | 0.00 | 77 | 1016.3 |
| 20260902144046 | 82 | 0 | 0.0 | 0.0 | 0.00 | 0.00 | 0.00 | 77 | 1016.3 |
| 20260902143546 | 82 | 0 | 0.0 | 0.9 | 0.00 | 0.00 | 0.00 | 77 | 1016.3 |
| 20260902143059 | 82 | 0 | 0.0 | 0.9 | 0.00 | 0.00 | 0.00 | 77 | 1016.3 |
| 20260902142545 | 82 | 0 | 0.0 | 0.0 | 0.00 | 0.00 | 0.00 | 78 | 1016.3 |
| 20260902142046 | 82 | 0 | 0.0 | 1.7 | 0.00 | 0.00 | 0.00 | 79 | 1016.3 |
| 20260902141604 | 82 | 0 | 0.0 | 1.7 | 0.00 | 0.00 | 0.00 | 79 | 1016.3 |
| 20260902141045 | 82 | 64 | 0.0 | 0.9 | 0.00 | 0.00 | 0.00 | 79 | 1016.4 |
| 20260902140545 | 81 | 0 | 0.0 | 2.6 | 0.00 | 0.00 | 0.00 | 79 | 1016.4 |
| 20260902140100 | 81 | 0 | 0.0 | 2.6 | 0.00 | 0.00 | 0.00 | 80 | 1016.4 |
| 20260902135545 | 80 | 64 | 0.0 | 2.6 | 0.00 | 0.00 | 0.00 | 81 | 1016.4 |
| 20260902135045 | 80 | 0 | 0.0 | 1.7 | 0.00 | 0.00 | 0.00 | 82 | 1016.3 |
| 20260902134612 | 79 | 0 | 0.0 | 1.7 | 0.00 | 0.00 | 0.00 | 82 | 1016.3 |
| 20260902134045 | 79 | 0 | 0.0 | 0.0 | 0.00 | 0.00 | 0.00 | 84 | 1016.4 |
| 20260902133547 | 78 | 0 | 0.0 | 0.0 | 0.00 | 0.00 | 0.00 | 84 | 1016.3 |
| 20260902133055 | 78 | 0 | 0.0 | 0.0 | 0.00 | 0.00 | 0.00 | 85 | 1016.2 |
| 20260902132546 | 78 | 0 | 0.0 | 0.0 | 0.00 | 0.00 | 0.00 | 86 | 1016.2 |
| 20260902132045 | 77 | 0 | 0.0 | 0.0 | 0.00 | 0.00 | 0.00 | 87 | 1016.1 |
| 20260902131552 | 77 | 0 | 0.0 | 0.0 | 0.00 | 0.00 | 0.00 | 86 | 1016.0 |
| 20260902131048 | 76 | 0 | 0.0 | 0.0 | 0.00 | 0.00 | 0.00 | 85 | 1016.0 |
| 20260902130546 | 76 | 0 | 0.0 | 0.0 | 0.00 | 0.00 | 0.00 | 85 | 1016.0 |
| 20260902130059 | 76 | 0 | 0.0 | 0.0 | 0.00 | 0.00 | 0.00 | 85 | 1015.9 |
| 20260902125544 | 76 | 0 | 0.0 | 0.0 | 0.00 | 0.00 | 0.00 | 85 | 1015.9 |
| 20260902125048 | 76 | 0 | 0.0 | 0.0 | 0.00 | 0.00 | 0.00 | 85 | 1015.8 |
| 20260902124556 | 76 | 0 | 0.0 | 0.0 | 0.00 | 0.00 | 0.00 | 85 | 1015.8 |
| 20260902124046 | 76 | 0 | 0.0 | 0.0 | 0.00 | 0.00 | 0.00 | 85 | 1015.8 |
| 20260902123545 | 76 | 0 | 0.0 | 0.0 | 0.00 | 0.00 | 0.00 | 85 | 1015.7 |
| 20260902123059 | 76 | 0 | 0.0 | 0.0 | 0.00 | 0.00 | 0.00 | 85 | 1015.7 |
| 20260902122545 | 76 | 0 | 0.0 | 0.0 | 0.00 | 0.00 | 0.00 | 84 | 1015.7 |
| 20260902122045 | 76 | 0 | 0.0 | 0.0 | 0.00 | 0.00 | 0.00 | 84 | 1015.6 |
| 20260902121549 | 76 | 0 | 0.0 | 0.0 | 0.00 | 0.00 | 0.00 | 84 | 1015.6 |
| 20260902121046 | 76 | 0 | 0.0 | 0.0 | 0.00 | 0.00 | 0.00 | 84 | 1015.6 |
| 20260902120546 | 76 | 0 | 0.0 | 0.0 | 0.00 | 0.00 | 0.00 | 84 | 1015.6 |
| 20260902120101 | 76 | 0 | 0.0 | 0.0 | 0.00 | 0.00 | 0.00 | 84 | 1015.6 |
| 20260902115545 | 76 | 0 | 0.0 | 0.0 | 0.00 | 0.00 | 0.00 | 84 | 1015.5 |
| 20260902115045 | 76 | 0 | 0.0 | 0.0 | 0.00 | 0.00 | 0.00 | 84 | 1015.5 |
| 20260902114557 | 76 | 0 | 0.0 | 0.0 | 0.00 | 0.00 | 0.00 | 84 | 1015.4 |
| 20260902114046 | 76 | 0 | 0.0 | 0.0 | 0.00 | 0.00 | 0.00 | 84 | 1015.4 |
| 20260902113545 | 76 | 0 | 0.0 | 0.0 | 0.00 | 0.00 | 0.00 | 84 | 1015.4 |
| 20260902113054 | 76 | 0 | 0.0 | 0.0 | 0.00 | 0.00 | 0.00 | 83 | 1015.4 |
| 20260902112545 | 76 | 0 | 0.0 | 0.0 | 0.00 | 0.00 | 0.00 | 83 | 1015.3 |
| 20260902112045 | 76 | 0 | 0.0 | 0.0 | 0.00 | 0.00 | 0.00 | 83 | 1015.3 |
| 20260902111601 | 76 | 0 | 0.0 | 0.0 | 0.00 | 0.00 | 0.00 | 83 | 1015.3 |
| 20260902111046 | 76 | 0 | 0.0 | 0.0 | 0.00 | 0.00 | 0.00 | 83 | 1015.4 |
| 20260902110546 | 77 | 0 | 0.0 | 0.0 | 0.00 | 0.00 | 0.00 | 83 | 1015.4 |
| 20260902110057 | 77 | 0 | 0.0 | 0.0 | 0.00 | 0.00 | 0.00 | 82 | 1015.4 |
| 20260902105545 | 77 | 0 | 0.0 | 0.0 | 0.00 | 0.00 | 0.00 | 82 | 1015.4 |
| 20260902105046 | 77 | 0 | 0.0 | 0.9 | 0.00 | 0.00 | 0.00 | 82 | 1015.4 |
| 20260902104600 | 77 | 0 | 0.0 | 0.9 | 0.00 | 0.00 | 0.00 | 82 | 1015.3 |
| 20260902104047 | 77 | 0 | 0.0 | 0.0 | 0.00 | 0.00 | 0.00 | 83 | 1015.4 |
| 20260902103547 | 77 | 0 | 0.0 | 0.0 | 0.00 | 0.00 | 0.00 | 82 | 1015.4 |